Volver al catálogo

CZ-6A DEB

ActivoPO
NORAD 61296·DEBRIS·🇨🇳 China

Lanzado Aug 6, 2024 desde Taiyuan Satellite Launch Center

Loading…

Próximos Pases (próximas 24 horas)

TLE

ActualizadoSource: Space-Track

Época: Sep 14, 2026, 18:51 UTC

1 61296U 24140TH  26257.78559443  .00000812  00000-0  34011-3 0  9995
2 61296  89.0752 271.3546 0031973 201.5345 158.4506 14.24886370106333

Sigue CZ-6A DEB en tiempo real con AllMySat

Download on the App Store